Notices

What's New in latest Release from April 7th, 2021:

- Updated Glossary, including Speed of Maximum Gust, and Total Hourly Precipitation

- Updated national and regional climate services offices contacts and prices information

- Addition of station inventory lists for 1981-2010, 1971-2000, and 1961-1990 Normals.

If you haven't already, please take our survey and provide feedback about our website: https://eccc.sondage-survey.ca/f/LanguageSelection.aspx?s=442ca660-fcf1-47c0-95a9-59707d6fd709

Hourly Data Report for April 23, 2017

CLYDE RIVER A
NUNAVUT

70°29'09.000" N
68°31'01.000" W
26.50 m
2400804
71090
YCY

Download Data

Hourly Data (April 2017)
Hourly Data Report for April 23, 2017
TIME
LST
Temp Definition
°C
Dew Point Definition
°C
Rel Hum Definition
%
Precip. Amount Definition
mm

Wind Dir Definition
10's deg

Wind Spd Definition
km/h
Visibility Definition
km
Stn Press Definition
kPa
Hmdx Definition


Wind Chill Definition


Weather Definition


00:00 -20.9 -23.2 82 0.0 31 15 16.1 102.16   -30 LegendNANA
01:00 -19.9 -21.7 86 0.0 32 13 16.1 102.16   -28 LegendNANA
02:00 -19.1 -20.8 87 0.0 LegendMM 11 16.1 102.15   -27 LegendNANA
03:00 -17.4 -18.9 88 0.0 32 13 16.1 102.16   -25 LegendNANA
04:00 -16.6 -17.7 91 0.0 31 11 16.1 102.15   -24 LegendNANA
05:00 -16.3 -17.9 88 0.0 32 21 16.1 102.13   -26 Snow
06:00 -18.4 -20.4 85 0.0 31 17 16.1 102.09   -28 LegendNANA
07:00 -17.5 -20.3 79 0.0 32 17 16.1 102.05   -27 LegendNANA
08:00 -16.2 -19.2 78 0.0 33 17 16.1 102.03   -25 LegendNANA
09:00 -15.3 -18.5 77 0.0 31 22 16.1 101.99   -25 LegendNANA
10:00 -14.4 -17.6 77 0.0 30 26 16.1 101.95   -25 LegendNANA
11:00 -13.9 -17.1 77 0.0 31 24 16.1 101.94   -24 LegendNANA
12:00 -13.7 -16.8 78 0.0 32 30 16.1 101.93   -24 LegendNANA
13:00 -13.5 -16.2 81 0.0 32 30 16.1 101.91   -24 LegendNANA
14:00 -13.5 -16.3 80 0.0 32 30 16.1 101.90   -24 LegendNANA
15:00 -13.6 -16.2 81 0.0 32 30 16.1 101.92   -24 Snow
16:00 -13.2 -15.8 81 0.0 32 26 16.1 101.91   -23 Snow
17:00 -13.0 -16.0 79 0.0 32 28 16.1 101.88   -23 Snow
18:00 -15.7 -18.4 80 0.0 30 13 16.1 101.91   -23 LegendNANA
19:00 -17.9 -20.5 81 0.0 25 9 16.1 101.92   -24 LegendNANA
20:00 -20.0 -22.5 81 0.0 30 21 16.1 101.92   -31 LegendNANA
21:00 -20.6 -22.6 84 0.0 29 17 16.1 101.90   -30 LegendNANA
22:00 -20.8 -23.5 80 0.0 30 18 16.1 101.88   -31 LegendNANA
23:00 -21.5 -23.7 83 0.0 24 11 16.1 101.90   -29 LegendNANA

Notes on Data Quality.

Legend

  • E = Estimated
  • M = Missing
  • NA = Not Available*
  • [empty] = Indicates an unobserved value
Date modified: